Temp
11 11 11 11 11 11 11 11 11 11 11 11 11 11 11 11 11 11 11 11 11 11 11 11 11 11 11 11 11 11 11 11 11 11 10 10 10 10 10 10 10 10 10 10 10 10 10 10 10 10 10 9 9 9 9 9 9 9 9 9 8 8 8 8 8 8 7 7 7
11 11 11 11 11 11 11 11 11 11 11 11 11 11 11 11 11 11 11 11 11 11 11 11 11 11 11 11 11 11 11 11 11 11 11 11 10 10 10 10 10 10 10 10 10 10 10 10 10 9 9 9 9 9 9 9 9 9 9 8 8 8 8 8 7 7 7 7 7
11 11 11 11 11 11 11 11 11 11 11 11 11 11 11 11 11 11 11 11 11 11 11 11 11 11 11 11 11 11 11 11 11 11 11 11 10 10 10 10 10 10 10 10 9 9 9 9 9 9 9 9 9 9 9 9 9 8 8 8 8 8 8 7 7 7 7 7 7
11 11 11 11 11 11 11 11 11 11 11 11 11 11 11 11 11 11 11 11 11 11 11 11 11 11 11 11 11 11 11 11 11 11 10 10 10 10 10 10 10 10 9 9 9 9 9 9 9 9 9 9 9 9 9 9 8 8 8 8 8 8 7 7 7 7 7 7 6
11 11 11 11 11 11 11 11 11 11 11 11 11 11 11 11 11 11 11 11 11 11 11 11 11 11 11 10 10 10 10 10 10 10 10 10 10 10 10 10 10 10 9 9 9 9 9 9 9 9 9 9 9 9 9 8 8 8 8 8 8 7 7 7 7 7 7 6 6
11 11 11 11 11 11 11 11 11 11 11 11 11 11 11 11 11 11 11 11 11 11 11 11 11 10 10 10 10 10 10 10 10 10 10 10 10 10 10 10 10 9 9 9 9 9 9 9 9 9 9 9 9 9 8 8 8 8 8 8 7 7 7 7 7 7 6 6 6
11 11 11 11 11 11 11 11 11 11 11 11 11 11 11 11 11 11 11 11 11 11 11 11 11 10 10 10 10 10 10 10 10 10 10 10 10 10 10 10 10 9 9 9 9 9 9 8 8 9 9 9 8 8 8 8 8 8 8 8 7 7 7 7 7 6 6 6 6
11 11 11 11 11 11 11 11 11 11 11 11 11 11 11 11 11 11 11 11 11 11 11 11 11 10 10 10 10 10 10 10 10 10 10 10 9 9 9 9 9 9 9 9 9 9 8 8 8 8 8 8 8 8 8 8 8 8 7 7 7 7 7 7 6 6 6 6 6
11 11 11 11 11 11 11 11 11 11 11 11 11 11 11 11 11 11 11 11 11 11 11 10 10 10 10 10 10 10 10 10 10 10 10 9 9 9 9 9 9 9 9 9 9 9 8 8 8 8 8 8 8 8 8 8 8 7 7 7 7 7 7 6 6 6 6 6 6
11 11 11 11 11 11 11 11 11 11 11 11 11 11 11 11 10 10 11 11 11 10 10 10 10 10 10 10 10 10 10 10 10 10 9 9 9 9 9 9 9 9 9 9 9 8 8 8 8 8 8 8 8 8 8 8 8 7 7 7 7 7 6 6 6 6 6 6 6
11 11 11 11 11 11 11 11 11 11 11 11 11 11 10 10 10 10 10 10 10 10 10 10 10 10 10 10 10 10 10 10 10 9 9 9 9 9 9 9 9 9 9 8 8 8 8 8 8 8 8 8 8 8 8 8 7 7 7 7 7 6 6 6 6 6 6 6 5
11 11 11 11 11 11 11 11 11 11 11 11 11 11 10 10 10 10 10 10 10 10 10 10 10 10 10 10 10 10 9 9 9 9 9 9 9 9 9 8 8 8 8 8 8 8 8 8 8 7 8 8 8 8 8 7 7 7 7 7 6 6 6 6 6 6 6 5 5
11 11 11 11 11 11 11 11 11 11 11 11 10 10 10 10 10 10 10 10 10 10 10 10 10 10 10 9 9 9 9 9 9 9 9 9 9 9 8 8 8 8 8 8 8 8 7 7 7 7 7 7 8 7 7 7 7 7 7 6 6 6 6 6 6 6 5 5 5
11 11 11 11 11 11 11 11 11 11 10 10 10 10 10 10 10 10 10 9 9 9 9 9 9 9 9 9 9 9 9 9 9 8 8 8 8 8 8 8 8 8 8 8 7 7 7 7 7 7 7 7 7 7 7 7 7 7 6 6 6 6 6 6 6 5 5 5 5
11 11 11 11 11 11 11 10 10 10 10 10 10 10 10 10 10 9 9 9 9 9 9 9 9 9 9 9 9 9 9 8 8 8 8 8 8 8 8 8 8 8 7 7 7 7 7 7 7 7 7 7 7 7 7 7 7 6 6 6 6 6 6 6 6 5 5 5 5
11 11 11 11 10 10 10 10 10 10 10 10 10 10 10 9 9 9 9 9 9 9 9 9 9 9 9 9 8 8 8 8 8 8 8 8 8 8 8 8 7 7 7 7 7 7 7 7 7 7 7 7 7 7 7 7 6 6 6 6 6 6 6 6 5 5 5 5 5
11 11 11 10 10 10 10 10 10 10 10 10 10 9 9 9 9 9 9 9 9 9 9 9 9 8 8 8 8 8 8 8 8 8 8 8 8 7 7 7 7 7 7 7 7 7 7 7 7 7 7 7 7 7 6 6 6 6 6 6 6 6 5 5 5 5 5 5 4
10 10 10 10 10 10 10 10 10 10 10 9 9 9 9 9 9 9 9 9 8 8 8 8 8 8 8 8 8 8 8 7 7 7 7 7 7 7 7 7 7 6 6 6 6 7 7 7 7 6 6 6 6 6 6 6 6 6 6 6 6 5 5 5 5 5 5 4 4
10 10 10 10 10 10 10 9 9 9 9 9 9 9 9 9 9 8 8 8 8 8 8 8 8 8 8 8 7 7 7 7 7 7 7 7 7 6 6 6 6 6 6 6 6 6 6 6 6 6 6 6 6 6 6 6 6 6 6 6 5 5 5 5 5 5 4 4 4
10 10 10 10 9 9 9 9 9 9 9 9 9 8 8 8 8 8 8 8 8 8 8 8 7 7 7 7 7 7 7 7 7 6 6 6 6 6 6 6 6 6 6 6 6 6 6 6 6 6 6 6 6 6 6 6 6 6 5 5 5 5 5 5 4 4 4 4 4
10 10 10 9 9 9 9 9 9 9 8 8 8 8 8 8 8 8 7 7 7 7 7 7 7 7 7 7 7 6 6 6 6 6 6 6 6 6 6 6 6 6 6 6 6 6 6 6 6 6 6 6 6 6 6 6 5 5 5 5 5 5 5 4 4 4 4 4 4
10 10 9 9 9 9 9 9 8 8 8 8 8 8 7 7 7 7 7 7 7 7 7 7 7 7 7 6 6 6 6 6 6 6 6 6 6 6 6 6 6 6 6 6 6 6 6 6 6 6 6 6 6 5 5 5 5 5 5 5 5 4 4 4 4 4 4 4 3
10 10 9 9 9 9 8 8 8 8 8 8 7 7 7 7 7 7 7 7 7 7 7 7 7 6 6 6 6 6 6 6 6 6 5 6 6 6 6 6 6 6 6 6 6 6 6 6 6 5 5 5 5 5 5 5 5 5 4 4 4 4 4 4 4 4 4 3 3
10 10 9 9 9 9 8 8 8 8 8 7 7 7 7 7 7 7 7 7 7 7 7 6 6 6 6 6 6 5 5 5 5 5 5 5 5 5 5 5 6 6 6 6 6 5 5 5 5 5 5 5 5 5 5 4 4 4 4 4 4 4 4 4 4 4 3 3 3
10 9 9 9 9 8 8 8 8 7 7 7 7 7 7 7 7 7 7 7 7 6 6 6 6 6 5 5 5 5 5 5 5 5 5 5 5 5 5 5 5 5 5 5 5 5 5 5 5 5 5 4 4 4 4 4 4 4 4 4 4 4 4 4 4 3 3 3 2
10 9 9 9 8 8 8 8 7 7 7 7 7 7 7 7 7 7 6 6 6 6 6 6 5 5 5 5 5 5 5 5 5 5 5 5 5 5 5 5 5 5 5 5 5 5 5 5 4 4 4 4 4 4 4 4 4 4 4 4 4 3 3 3 3 3 3 3 2
9 9 9 8 8 8 7 7 7 7 7 7 7 6 6 6 6 6 6 6 6 6 6 5 5 5 5 5 5 5 5 5 5 5 5 5 5 5 5 5 5 5 5 5 5 4 4 4 4 4 4 4 4 4 4 4 4 4 4 4 4 3 3 3 3 3 3 2 2
9 9 8 8 8 7 7 7 7 7 6 6 6 6 6 6 6 6 6 6 6 5 5 5 5 5 5 5 5 5 5 5 5 5 5 5 5 5 5 5 5 5 5 4 4 4 4 4 4 4 4 3 3 3 4 4 4 4 3 3 3 3 3 3 2 2 2 2 1
9 9 8 8 8 7 7 7 7 6 6 6 6 6 6 6 6 6 6 5 5 5 5 5 5 5 5 5 5 5 5 5 5 5 5 5 5 5 5 5 5 4 4 4 4 4 4 4 4 4 4 4 3 3 3 3 3 3 3 3 3 2 2 2 2 1 1 1 0
9 9 8 8 8 7 7 7 6 6 6 6 6 6 6 6 6 5 5 5 5 5 5 5 5 5 5 5 5 5 4 4 4 4 4 5 5 4 4 4 4 4 4 4 4 4 4 4 4 4 4 4 3 3 3 3 3 2 2 2 2 1 1 1 0 0 -0 -0 -1
9 9 9 8 8 7 7 7 6 6 6 6 6 6 6 5 5 5 5 5 5 5 5 5 5 5 5 5 5 4 4 4 4 4 4 4 4 4 4 4 4 4 4 4 4 4 4 4 4 4 4 4 3 3 3 3 2 2 2 2 1 1 0 0 -0 -1 -1 -1 -1
9 9 9 8 8 7 7 7 6 6 6 6 6 5 5 5 5 5 5 5 5 5 5 5 5 5 5 5 4 4 4 4 4 4 4 4 4 4 4 4 4 4 4 4 4 4 4 4 4 4 4 3 3 3 3 3 2 2 2 1 1 1 0 -0 -1 -1 -1 -1 -2
9 9 8 8 7 7 7 6 6 6 6 6 6 5 5 5 5 5 5 5 5 5 5 5 5 5 5 5 4 4 4 4 4 4 4 4 4 4 5 5 5 4 4 4 4 4 4 4 4 4 4 3 3 3 3 2 2 2 1 1 1 0 -0 -0 -1 -1 -1 -2 -2
9 8 8 8 7 7 7 6 6 6 6 6 5 5 5 5 5 5 5 5 5 5 5 5 5 4 4 4 4 4 4 4 4 4 4 4 5 5 5 5 5 4 4 4 4 4 4 4 4 4 3 3 3 3 2 2 2 2 1 1 1 0 -0 -1 -1 -1 -1 -2 -2
8 8 8 7 7 7 6 6 6 6 6 5 5 5 5 5 5 5 5 5 5 5 5 4 4 4 4 4 4 4 4 4 4 4 4 5 5 5 5 5 5 4 4 4 4 4 4 4 4 3 3 3 3 2 2 2 2 1 1 1 0 -0 -0 -1 -1 -1 -2 -2 -2
8 8 7 7 7 7 6 6 6 6 5 5 5 5 5 5 5 5 5 5 5 5 5 4 4 4 4 5 5 5 5 5 5 5 4 4 4 5 5 5 4 4 4 4 4 4 4 4 3 3 3 3 2 2 2 1 1 1 0 0 -0 -1 -1 -1 -2 -2 -2 -2 -3
7 7 7 7 6 6 6 6 5 5 5 5 5 5 5 5 5 5 5 5 5 5 5 5 5 5 5 5 5 5 5 5 5 4 4 4 4 4 4 4 4 4 4 4 4 4 3 3 3 3 2 2 2 1 1 1 0 -0 -1 -1 -1 -2 -2 -2 -3 -3 -3 -3 -3
7 6 6 6 6 6 6 5 5 5 5 5 5 5 5 5 5 5 5 5 5 5 5 5 5 5 5 5 5 5 4 4 4 4 4 4 4 4 4 4 4 4 4 4 3 3 3 3 2 2 2 1 1 1 0 -0 -1 -1 -2 -2 -2 -3 -3 -3 -3 -4 -4 -4 -4
6 6 6 6 6 6 5 5 5 5 5 5 5 5 5 5 5 5 5 5 5 5 5 5 5 5 5 5 5 4 4 4 4 4 4 4 4 4 4 4 4 4 3 3 3 3 2 2 2 1 1 0 -0 -1 -1 -1 -2 -2 -3 -3 -3 -3 -4 -4 -4 -4 -4 -4 -4
6 6 6 6 6 6 5 5 5 5 5 5 5 5 5 5 5 5 5 5 5 5 5 5 5 5 5 5 5 5 4 4 4 4 4 4 4 4 3 3 3 3 3 2 2 2 1 1 1 0 -0 -1 -1 -2 -2 -2 -3 -3 -3 -4 -4 -4 -4 -4 -4 -4 -4 -4 -4
6 6 6 6 6 6 5 5 5 5 5 5 5 5 5 5 5 5 5 5 5 5 5 5 5 5 4 4 4 4 4 4 4 4 4 3 3 3 3 3 2 2 2 2 1 1 0 0 -0 -1 -1 -2 -2 -3 -3 -3 -4 -4 -4 -4 -4 -4 -4 -4 -4 -4 -4 -4 -4
Height
1519 1520 1520 1521 1521 1522 1523 1524 1524 1525 1525 1526 1527 1527 1528 1528 1529 1530 1530 1531 1531 1532 1533 1534 1534 1535 1535 1536 1536 1536 1536 1536 1536 1536 1537 1537 1537 1537 1538 1538 1538 1538 1539 1539 1539 1539 1538 1538 1538 1538 1538 1538 1538 1538 1538 1538 1538 1537 1537 1537 1537 1536 1536 1535 1535 1534 1534 1533 1533
1518 1519 1520 1520 1520 1521 1522 1523 1523 1524 1525 1525 1526 1526 1527 1527 1528 1528 1529 1530 1530 1531 1532 1532 1533 1534 1534 1535 1535 1535 1535 1535 1535 1535 1535 1536 1536 1536 1536 1536 1536 1537 1537 1537 1537 1537 1537 1537 1537 1536 1536 1536 1536 1536 1536 1536 1536 1536 1535 1535 1535 1535 1534 1534 1533 1533 1533 1532 1531
1517 1518 1519 1519 1520 1520 1521 1521 1522 1523 1524 1524 1525 1525 1526 1526 1527 1527 1528 1528 1529 1530 1531 1531 1532 1532 1533 1533 1534 1534 1534 1534 1534 1534 1534 1534 1535 1535 1535 1535 1535 1535 1535 1535 1535 1535 1535 1535 1535 1535 1535 1535 1535 1535 1535 1535 1534 1534 1534 1534 1534 1533 1533 1532 1532 1532 1531 1530 1530
1516 1517 1517 1518 1518 1519 1520 1520 1521 1522 1523 1523 1524 1525 1525 1525 1526 1526 1526 1527 1528 1528 1529 1530 1530 1531 1531 1532 1532 1533 1533 1533 1533 1533 1533 1533 1533 1533 1533 1533 1533 1533 1534 1534 1534 1534 1534 1534 1534 1534 1533 1533 1533 1533 1533 1533 1533 1532 1532 1532 1532 1532 1531 1531 1530 1530 1530 1529 1529
1515 1515 1516 1517 1517 1518 1519 1520 1521 1521 1522 1523 1523 1524 1524 1524 1525 1525 1525 1526 1526 1527 1527 1528 1529 1530 1530 1531 1531 1531 1531 1531 1531 1531 1531 1531 1531 1531 1531 1531 1531 1532 1532 1532 1532 1532 1532 1532 1532 1532 1532 1532 1532 1532 1532 1531 1531 1531 1531 1530 1530 1530 1530 1530 1529 1529 1528 1528 1527
1514 1515 1515 1516 1517 1518 1518 1519 1520 1521 1521 1522 1522 1522 1523 1523 1523 1524 1524 1524 1525 1525 1526 1527 1528 1528 1529 1529 1530 1530 1530 1530 1530 1530 1530 1530 1530 1530 1530 1530 1530 1530 1530 1530 1530 1530 1530 1530 1530 1530 1530 1530 1530 1530 1530 1530 1530 1529 1529 1529 1529 1529 1528 1528 1528 1527 1527 1526 1526
1513 1514 1515 1516 1516 1517 1518 1518 1519 1520 1520 1520 1520 1521 1521 1521 1522 1522 1523 1523 1524 1524 1525 1525 1526 1527 1527 1528 1528 1528 1528 1528 1528 1528 1528 1528 1528 1528 1528 1528 1528 1529 1529 1529 1529 1529 1529 1529 1528 1528 1528 1529 1529 1529 1529 1528 1528 1528 1527 1527 1527 1527 1527 1526 1526 1526 1525 1525 1524
1513 1514 1514 1515 1516 1516 1517 1518 1518 1519 1519 1519 1519 1520 1520 1520 1521 1521 1522 1522 1523 1523 1524 1524 1525 1525 1526 1526 1526 1526 1527 1527 1526 1526 1526 1526 1526 1526 1526 1527 1527 1527 1527 1527 1527 1527 1526 1526 1527 1527 1527 1527 1527 1527 1527 1527 1527 1526 1526 1526 1526 1526 1525 1525 1525 1524 1524 1523 1523
1512 1513 1514 1515 1515 1515 1516 1517 1517 1517 1518 1518 1518 1519 1519 1520 1520 1520 1521 1521 1521 1522 1522 1523 1523 1524 1524 1525 1525 1525 1525 1525 1525 1525 1525 1525 1525 1525 1525 1525 1525 1525 1525 1525 1525 1525 1525 1525 1525 1525 1525 1525 1525 1526 1526 1525 1525 1525 1525 1525 1524 1524 1524 1524 1523 1523 1522 1522 1521
1511 1512 1513 1514 1514 1515 1515 1516 1516 1516 1516 1517 1517 1518 1518 1519 1519 1519 1520 1520 1520 1521 1521 1521 1522 1522 1523 1523 1523 1523 1523 1523 1523 1523 1523 1523 1523 1523 1523 1523 1523 1523 1523 1523 1523 1523 1523 1523 1523 1523 1523 1524 1524 1524 1524 1524 1524 1523 1523 1523 1523 1523 1522 1522 1522 1521 1521 1520 1520
1510 1511 1512 1513 1513 1514 1515 1515 1515 1515 1515 1516 1516 1517 1517 1518 1518 1518 1519 1519 1519 1519 1520 1520 1521 1521 1521 1521 1521 1522 1522 1522 1522 1522 1522 1522 1522 1521 1521 1521 1521 1521 1521 1521 1521 1521 1521 1521 1521 1521 1521 1522 1522 1523 1523 1523 1522 1522 1522 1521 1521 1521 1521 1520 1520 1520 1519 1519 1518
1510 1510 1511 1512 1512 1513 1513 1514 1514 1514 1514 1515 1515 1515 1516 1516 1517 1517 1518 1518 1518 1518 1518 1519 1519 1519 1520 1520 1520 1520 1520 1521 1521 1521 1521 1520 1520 1520 1520 1519 1519 1520 1520 1520 1520 1519 1519 1519 1519 1519 1520 1520 1521 1521 1521 1521 1521 1520 1520 1520 1520 1520 1519 1519 1519 1518 1518 1517 1516
1509 1510 1510 1511 1511 1512 1512 1512 1513 1513 1513 1514 1514 1514 1515 1515 1515 1516 1516 1516 1516 1517 1517 1517 1518 1518 1518 1518 1519 1519 1519 1519 1519 1519 1519 1519 1519 1519 1518 1518 1518 1518 1518 1518 1518 1518 1517 1517 1517 1518 1518 1519 1520 1520 1520 1520 1520 1519 1519 1518 1518 1518 1517 1517 1517 1517 1516 1515 1514
1508 1509 1509 1510 1510 1510 1511 1511 1511 1512 1512 1512 1513 1513 1514 1514 1514 1515 1515 1515 1515 1515 1516 1516 1516 1516 1517 1517 1517 1518 1518 1518 1518 1518 1518 1517 1517 1517 1517 1517 1517 1517 1517 1516 1516 1516 1516 1515 1516 1516 1517 1518 1518 1519 1519 1518 1518 1518 1517 1517 1516 1516 1516 1516 1515 1515 1514 1513 1512
1507 1507 1508 1508 1509 1509 1510 1510 1510 1510 1511 1511 1512 1512 1512 1513 1513 1513 1514 1514 1514 1514 1515 1515 1515 1515 1516 1516 1516 1516 1516 1516 1516 1516 1516 1516 1516 1516 1515 1515 1515 1515 1515 1515 1515 1515 1514 1515 1515 1515 1516 1517 1517 1517 1517 1517 1516 1516 1515 1515 1515 1515 1514 1514 1514 1513 1512 1511 1510
1506 1506 1507 1507 1508 1508 1508 1509 1509 1509 1510 1510 1510 1511 1511 1511 1512 1512 1512 1512 1513 1513 1513 1514 1514 1514 1514 1515 1515 1515 1515 1515 1515 1515 1515 1515 1515 1515 1515 1514 1514 1514 1514 1513 1513 1513 1513 1513 1514 1514 1515 1515 1515 1515 1515 1515 1515 1514 1514 1514 1513 1513 1512 1512 1512 1511 1510 1510 1508
1505 1505 1505 1506 1506 1507 1507 1507 1508 1508 1509 1509 1509 1510 1510 1510 1510 1511 1511 1511 1511 1512 1512 1512 1513 1513 1513 1513 1513 1513 1513 1513 1513 1513 1513 1513 1513 1513 1513 1513 1513 1512 1512 1512 1511 1511 1512 1512 1513 1513 1514 1514 1514 1514 1514 1513 1513 1513 1512 1512 1511 1511 1511 1510 1510 1509 1508 1507 1506
1504 1504 1504 1505 1505 1505 1506 1506 1507 1507 1507 1508 1508 1508 1509 1509 1509 1509 1510 1510 1510 1510 1510 1511 1511 1511 1511 1511 1511 1512 1512 1512 1512 1512 1512 1512 1512 1512 1511 1511 1511 1511 1510 1510 1510 1510 1510 1511 1511 1512 1512 1512 1512 1512 1512 1512 1511 1511 1510 1510 1510 1509 1509 1508 1508 1507 1506 1505 1504
1502 1503 1503 1503 1504 1504 1505 1505 1505 1506 1506 1506 1507 1507 1507 1507 1508 1508 1508 1509 1509 1509 1509 1509 1510 1510 1510 1510 1510 1510 1510 1510 1510 1510 1510 1510 1510 1510 1510 1510 1510 1509 1509 1509 1509 1509 1510 1510 1510 1510 1511 1511 1511 1511 1510 1510 1510 1509 1509 1508 1508 1507 1507 1506 1506 1505 1504 1503 1502
1501 1501 1502 1502 1503 1503 1503 1504 1504 1504 1505 1505 1505 1505 1506 1506 1506 1507 1507 1507 1507 1508 1508 1508 1508 1508 1508 1509 1509 1509 1509 1509 1509 1509 1509 1509 1509 1509 1509 1508 1508 1508 1508 1508 1508 1508 1509 1509 1509 1510 1510 1510 1509 1509 1509 1509 1508 1507 1507 1506 1506 1505 1505 1504 1504 1503 1502 1501 1500
1500 1500 1501 1501 1501 1502 1502 1502 1503 1503 1503 1504 1504 1504 1505 1505 1505 1505 1505 1506 1506 1506 1506 1506 1507 1507 1507 1507 1507 1508 1508 1508 1508 1508 1508 1508 1508 1507 1507 1507 1507 1507 1507 1507 1507 1508 1508 1508 1508 1508 1508 1508 1508 1507 1507 1507 1506 1505 1505 1504 1504 1503 1503 1502 1501 1500 1499 1498 1497
1499 1499 1500 1500 1500 1500 1501 1501 1501 1501 1502 1502 1502 1503 1503 1503 1504 1504 1504 1505 1505 1505 1505 1505 1505 1505 1506 1506 1506 1506 1506 1507 1507 1507 1507 1506 1506 1506 1506 1506 1506 1506 1506 1506 1507 1507 1507 1507 1507 1507 1507 1506 1506 1506 1505 1505 1504 1504 1503 1502 1501 1501 1500 1500 1499 1498 1497 1496 1495
1498 1498 1498 1499 1499 1499 1500 1500 1500 1500 1500 1501 1501 1502 1502 1502 1503 1503 1503 1503 1504 1504 1504 1504 1504 1505 1505 1505 1505 1505 1505 1505 1505 1505 1505 1505 1505 1505 1505 1505 1505 1505 1505 1506 1506 1506 1506 1506 1506 1506 1505 1505 1505 1504 1504 1503 1502 1501 1500 1500 1499 1498 1497 1497 1496 1495 1494 1493 1492
1497 1497 1497 1498 1498 1498 1498 1499 1499 1499 1500 1500 1500 1500 1501 1501 1501 1502 1502 1502 1502 1503 1503 1503 1503 1503 1504 1504 1504 1504 1504 1504 1505 1505 1504 1504 1504 1504 1504 1505 1505 1505 1505 1505 1505 1505 1505 1505 1505 1504 1504 1503 1503 1502 1501 1501 1500 1499 1498 1497 1496 1495 1495 1494 1493 1492 1491 1490 1489
1496 1496 1496 1497 1497 1497 1497 1498 1498 1498 1499 1499 1499 1500 1500 1500 1500 1501 1501 1501 1501 1501 1502 1502 1502 1502 1503 1503 1503 1503 1503 1503 1503 1503 1503 1503 1504 1504 1504 1504 1504 1504 1505 1505 1505 1504 1504 1504 1503 1503 1502 1501 1501 1500 1499 1499 1498 1497 1496 1495 1494 1492 1491 1490 1490 1489 1488 1487 1487
1495 1495 1495 1496 1496 1496 1496 1497 1497 1497 1498 1498 1498 1499 1499 1499 1500 1500 1500 1500 1500 1500 1501 1501 1501 1501 1502 1502 1502 1502 1502 1503 1503 1503 1503 1503 1503 1503 1503 1503 1504 1504 1504 1504 1504 1503 1503 1502 1502 1501 1500 1500 1499 1498 1497 1496 1495 1495 1493 1492 1491 1490 1489 1488 1487 1486 1485 1485 1484
1494 1494 1495 1495 1495 1495 1495 1496 1496 1496 1497 1497 1497 1498 1498 1498 1499 1499 1499 1499 1500 1500 1500 1500 1500 1501 1501 1501 1501 1501 1502 1502 1502 1502 1502 1502 1502 1502 1503 1503 1503 1503 1503 1503 1502 1502 1501 1501 1500 1500 1499 1497 1496 1495 1495 1494 1493 1492 1491 1490 1488 1487 1486 1485 1484 1483 1482 1482 1481
1493 1494 1494 1494 1494 1495 1495 1495 1495 1496 1496 1496 1497 1497 1497 1498 1498 1498 1498 1499 1499 1499 1499 1500 1500 1500 1500 1500 1501 1501 1501 1501 1501 1501 1501 1501 1502 1502 1502 1502 1502 1502 1502 1501 1501 1500 1500 1499 1499 1498 1497 1495 1494 1493 1492 1491 1490 1489 1488 1486 1485 1484 1483 1482 1481 1480 1479 1478 1477
1493 1493 1493 1493 1493 1494 1494 1494 1495 1495 1495 1496 1496 1496 1497 1497 1497 1497 1498 1498 1498 1498 1499 1499 1499 1500 1500 1500 1500 1500 1500 1500 1500 1501 1501 1501 1501 1501 1501 1501 1501 1501 1500 1500 1499 1499 1498 1497 1496 1495 1495 1494 1492 1491 1490 1488 1487 1486 1485 1484 1483 1481 1480 1479 1478 1477 1476 1475 1474
1492 1492 1492 1493 1493 1493 1493 1494 1494 1494 1495 1495 1495 1496 1496 1496 1496 1497 1497 1497 1498 1498 1498 1498 1499 1499 1499 1499 1500 1500 1500 1500 1500 1500 1500 1500 1500 1500 1500 1500 1500 1499 1499 1498 1497 1497 1496 1495 1494 1493 1492 1491 1490 1489 1487 1486 1485 1484 1482 1481 1480 1479 1478 1477 1475 1475 1474 1473 1471
1492 1492 1492 1492 1492 1492 1493 1493 1493 1494 1494 1494 1495 1495 1495 1496 1496 1496 1496 1497 1497 1497 1498 1498 1498 1499 1499 1499 1499 1499 1499 1500 1500 1500 1500 1499 1499 1499 1499 1499 1498 1498 1497 1496 1495 1495 1494 1493 1492 1491 1490 1489 1488 1486 1485 1484 1482 1481 1480 1479 1478 1477 1476 1475 1473 1472 1471 1470 1469
1491 1491 1491 1491 1492 1492 1492 1493 1493 1493 1494 1494 1494 1495 1495 1495 1495 1496 1496 1496 1497 1497 1497 1498 1498 1498 1498 1499 1499 1499 1499 1499 1499 1499 1499 1498 1498 1498 1497 1497 1496 1496 1495 1494 1493 1492 1491 1490 1490 1489 1487 1486 1485 1484 1482 1481 1480 1479 1478 1476 1475 1475 1473 1472 1471 1470 1469 1468 1467
1491 1491 1491 1491 1491 1492 1492 1492 1493 1493 1493 1494 1494 1494 1495 1495 1495 1495 1496 1496 1497 1497 1497 1497 1498 1498 1498 1498 1498 1498 1498 1498 1498 1498 1497 1497 1496 1496 1496 1495 1495 1494 1493 1492 1491 1490 1489 1488 1487 1486 1485 1484 1482 1481 1480 1479 1477 1476 1475 1474 1473 1472 1471 1470 1469 1468 1467 1466 1465
1491 1491 1491 1491 1491 1492 1492 1492 1493 1493 1493 1494 1494 1494 1495 1495 1495 1496 1496 1496 1497 1497 1497 1498 1498 1498 1498 1498 1498 1498 1498 1497 1497 1496 1496 1495 1495 1495 1494 1494 1493 1492 1491 1490 1489 1488 1487 1486 1485 1484 1483 1481 1480 1479 1477 1476 1475 1474 1473 1471 1470 1470 1469 1468 1467 1465 1465 1463 1462
1491 1491 1491 1491 1492 1492 1492 1493 1493 1493 1494 1494 1494 1495 1495 1495 1496 1496 1496 1497 1497 1497 1497 1497 1498 1498 1497 1497 1497 1497 1497 1496 1496 1495 1495 1494 1493 1493 1492 1492 1491 1490 1489 1488 1487 1486 1485 1484 1483 1481 1480 1479 1477 1476 1475 1474 1472 1471 1470 1469 1468 1467 1466 1465 1464 1463 1462 1461 1460
1491 1492 1492 1492 1492 1492 1493 1493 1494 1494 1494 1495 1495 1495 1496 1496 1496 1496 1497 1497 1497 1497 1497 1497 1497 1497 1497 1496 1496 1496 1495 1495 1495 1494 1493 1492 1491 1491 1490 1490 1489 1488 1487 1486 1485 1484 1483 1481 1480 1479 1478 1476 1475 1474 1472 1471 1470 1469 1467 1466 1465 1464 1463 1463 1462 1461 1460 1459 1458
1492 1492 1493 1493 1493 1493 1494 1494 1494 1495 1495 1495 1496 1496 1496 1496 1496 1497 1497 1497 1497 1497 1497 1496 1496 1496 1496 1495 1495 1495 1494 1494 1493 1492 1491 1491 1490 1489 1488 1488 1487 1486 1485 1484 1483 1482 1480 1479 1478 1477 1475 1474 1472 1471 1470 1469 1467 1466 1465 1464 1462 1462 1461 1460 1459 1458 1457 1456 1456
1493 1493 1494 1494 1494 1494 1495 1495 1495 1495 1496 1496 1496 1496 1496 1496 1496 1496 1496 1496 1496 1496 1496 1496 1496 1495 1495 1495 1494 1494 1493 1492 1491 1491 1490 1489 1488 1487 1486 1486 1485 1484 1483 1482 1480 1480 1478 1477 1476 1475 1473 1471 1470 1469 1467 1466 1465 1463 1462 1461 1460 1459 1458 1458 1457 1456 1455 1454 1454
1494 1494 1495 1495 1495 1495 1495 1495 1496 1496 1496 1496 1496 1496 1496 1496 1496 1496 1496 1496 1496 1496 1495 1495 1495 1495 1494 1494 1493 1493 1492 1491 1490 1489 1488 1487 1486 1485 1485 1484 1483 1482 1480 1480 1478 1477 1476 1475 1473 1472 1471 1469 1468 1466 1465 1464 1462 1461 1460 1459 1458 1457 1456 1455 1455 1454 1453 1452 1451
1495 1495 1495 1495 1495 1495 1496 1496 1496 1496 1496 1496 1496 1496 1496 1496 1496 1496 1496 1496 1495 1495 1495 1495 1494 1494 1493 1493 1492 1491 1491 1490 1489 1488 1487 1486 1485 1484 1483 1481 1480 1479 1478 1477 1476 1475 1473 1472 1471 1470 1468 1467 1465 1464 1463 1461 1460 1459 1458 1457 1456 1455 1454 1453 1453 1452 1451 1450 1450
1495 1495 1495 1495 1496 1496 1496 1496 1496 1496 1496 1496 1496 1496 1496 1496 1495 1495 1495 1495 1495 1495 1494 1494 1493 1492 1492 1491 1490 1490 1489 1488 1487 1486 1485 1484 1483 1482 1480 1479 1478 1477 1476 1475 1473 1472 1471 1470 1469 1467 1466 1465 1464 1462 1461 1460 1458 1457 1456 1455 1454 1454 1452 1451 1450 1450 1449 1448 1447
Wind_Speed
39 40 40 41 40 40 40 40 39 39 39 38 38 37 37 36 36 35 34 33 32 31 30 29 28 28 27 27 27 27 27 27 28 28 29 29 29 29 29 28 29 29 30 31 31 31 31 31 30 29 27 26 24 23 22 22 21 20 20 20 19 19 18 18 18 18 18 18 18
39 40 40 40 40 40 40 39 39 39 39 38 38 37 37 36 36 35 35 34 33 32 30 30 29 28 27 27 27 26 26 27 27 27 28 28 28 29 29 29 29 29 30 30 31 31 31 31 31 30 28 27 26 24 23 23 22 21 21 20 20 19 19 19 18 18 18 18 18
38 39 39 40 40 40 40 39 39 39 39 38 38 37 37 36 36 36 35 34 33 32 31 30 30 29 28 27 27 26 26 26 26 26 26 27 27 28 29 29 29 30 30 30 30 31 31 32 31 31 29 28 27 25 24 23 22 21 21 21 20 20 19 19 19 19 19 19 19
37 38 39 40 40 40 40 39 39 39 38 38 37 37 37 36 36 36 35 34 33 33 32 31 31 30 29 28 27 26 26 25 25 25 26 26 26 27 28 28 29 30 30 30 30 30 31 31 32 31 30 29 27 25 24 23 22 22 21 21 20 20 20 20 19 19 19 20 20
37 37 38 39 39 39 39 38 38 38 37 37 37 36 36 36 36 35 35 35 34 34 33 32 31 30 29 28 27 26 26 25 25 25 25 25 26 26 27 28 29 29 29 30 30 30 31 31 32 32 31 30 28 26 24 23 22 22 22 22 21 21 20 20 20 20 20 20 21
36 36 37 37 37 37 37 37 37 36 36 36 36 36 36 36 36 35 35 35 35 34 33 33 32 31 30 29 28 27 26 25 25 26 25 25 25 26 26 27 28 28 29 29 30 30 31 32 32 32 32 30 28 27 25 24 23 23 22 22 22 21 21 21 21 21 21 21 21
35 35 35 36 36 36 36 36 35 35 35 35 35 36 36 35 35 35 35 35 34 34 33 33 32 31 30 29 28 27 26 26 26 26 26 26 26 26 26 26 27 27 28 28 29 30 31 32 33 33 32 31 29 27 26 24 24 23 23 22 22 21 21 21 21 21 21 22 22
34 34 34 34 34 35 35 35 34 34 35 35 35 35 35 35 35 35 34 34 34 34 33 33 32 31 30 29 28 27 27 27 27 27 27 26 26 26 26 26 26 26 27 28 29 30 31 32 33 33 32 31 29 28 26 25 24 24 23 23 22 22 21 21 21 22 22 22 23
33 33 33 33 34 34 34 34 34 34 35 35 35 35 35 34 34 34 34 34 33 33 32 32 31 30 29 28 28 27 27 27 27 27 27 27 26 26 26 26 26 26 26 27 28 29 31 32 32 33 32 31 30 28 26 25 24 24 23 23 22 22 22 22 22 22 22 23 23
33 33 33 33 33 33 33 33 33 34 34 34 34 34 34 34 33 33 33 33 32 32 31 30 29 29 28 27 27 27 27 26 26 26 26 26 26 26 26 26 25 25 25 26 27 29 30 31 32 32 32 31 30 28 26 25 24 24 23 23 22 22 22 22 22 22 23 23 24
32 32 32 33 32 33 33 33 33 33 34 34 34 33 33 33 32 32 32 31 31 30 30 29 28 27 27 26 26 26 25 25 25 26 26 26 26 26 26 26 25 24 24 25 26 28 29 30 31 32 32 31 29 28 26 25 24 24 23 23 22 22 22 22 22 23 23 24 25
30 30 31 31 31 32 32 32 33 33 33 33 33 33 32 32 31 31 30 30 29 29 28 27 27 26 25 25 24 24 24 24 24 25 25 25 26 26 26 25 24 24 24 25 26 27 28 29 30 31 31 30 28 27 26 24 24 23 23 23 22 22 22 22 22 23 23 24 25
27 28 29 29 30 31 31 32 32 32 32 32 32 32 31 31 30 29 29 28 28 27 26 26 25 24 24 23 23 23 23 23 23 24 24 24 25 25 24 24 23 23 24 24 25 26 27 28 28 29 29 28 27 26 24 24 23 23 23 22 22 22 22 22 22 23 23 25 26
25 26 27 28 29 29 30 31 31 31 31 31 31 30 30 29 29 28 27 27 26 26 25 24 23 23 23 22 22 22 22 22 23 23 23 23 24 24 23 23 23 23 24 24 24 25 25 25 26 26 26 26 25 24 23 23 22 22 22 22 22 22 22 22 22 23 24 25 27
24 25 26 27 27 28 29 29 30 30 30 30 30 29 28 28 27 27 26 26 25 24 24 23 23 23 22 22 22 22 22 22 22 22 22 23 23 23 22 22 22 23 23 23 22 22 22 22 23 23 23 23 23 23 22 22 22 22 22 22 22 22 22 22 23 23 25 26 27
23 24 24 25 25 26 27 27 28 29 29 29 29 28 27 27 26 26 25 25 24 24 23 23 23 23 23 22 22 22 22 22 22 21 21 21 22 21 21 21 21 21 21 20 20 20 19 19 20 20 20 21 21 21 21 22 22 22 22 22 22 22 22 23 23 24 25 27 28
21 21 22 22 22 23 24 25 26 27 27 28 28 27 27 26 26 25 25 24 24 23 23 23 23 23 22 22 22 22 21 21 21 21 20 20 20 20 20 20 20 19 19 18 17 17 17 17 17 18 18 19 20 20 21 21 21 21 22 22 22 22 23 23 24 25 26 28 29
19 19 19 19 20 21 21 23 24 25 26 27 26 26 26 25 25 24 24 24 23 23 23 23 22 22 21 21 21 21 20 20 20 20 19 19 19 19 19 19 18 18 17 16 15 15 15 15 15 16 17 18 19 20 20 21 21 21 22 22 22 23 24 24 25 26 27 28 30
18 18 18 18 18 19 20 21 22 23 24 25 25 25 25 24 24 24 23 23 23 22 22 21 21 20 20 20 19 19 19 18 18 18 18 18 18 18 17 17 16 15 15 14 14 13 13 14 15 16 17 18 19 19 20 20 21 21 22 22 23 24 25 25 26 27 28 29 30
17 17 17 17 17 18 18 19 21 22 23 23 23 23 23 23 23 22 22 21 21 20 20 20 19 19 18 18 17 17 16 16 16 16 16 16 16 16 15 15 14 13 13 12 12 12 13 14 15 16 17 18 19 19 20 20 21 22 22 23 24 25 26 27 28 28 29 30 31
16 16 16 16 16 16 17 17 18 19 20 21 21 21 21 21 20 20 19 19 19 18 18 18 17 16 15 15 14 14 14 14 14 15 15 15 14 14 13 12 12 12 11 11 11 12 13 14 15 16 17 18 18 19 20 20 21 22 23 24 25 26 27 28 29 30 30 31 31
15 15 14 14 14 14 15 15 16 17 17 18 18 18 18 18 18 17 17 17 16 16 16 15 14 13 13 12 12 12 13 13 13 13 13 13 12 12 11 11 10 10 10 10 11 12 13 14 15 16 17 17 18 19 20 21 22 24 25 26 27 28 29 30 30 31 31 31 31
13 13 13 13 13 13 13 14 14 14 15 15 15 15 15 15 15 15 14 14 14 13 13 12 11 11 11 11 11 11 12 12 12 12 12 11 10 10 9 9 9 9 10 10 11 12 13 14 15 16 17 18 19 20 21 22 24 25 27 28 29 30 31 31 31 32 32 32 32
10 11 11 11 12 12 12 12 12 12 12 13 13 13 13 13 12 12 12 12 11 11 10 10 9 9 9 10 10 10 11 11 11 10 10 9 9 8 8 8 9 9 10 10 11 12 13 14 15 16 17 18 20 21 23 24 25 27 28 30 31 32 32 32 32 32 32 32 32
8 9 9 10 10 10 10 10 10 11 11 11 11 11 11 11 10 10 10 9 9 8 8 8 8 8 8 9 9 9 10 10 9 9 8 8 7 7 8 8 8 9 10 10 11 12 13 14 16 17 18 20 21 23 24 26 27 28 29 31 31 32 33 33 33 33 32 32 31
7 7 8 8 9 9 9 9 10 10 10 10 10 10 10 9 9 8 8 7 6 6 6 6 6 7 7 8 8 8 8 8 8 7 7 7 7 7 8 8 9 9 10 11 12 13 14 15 17 18 20 21 23 25 26 27 28 29 30 31 32 32 33 34 34 33 32 32 31
6 7 7 8 8 9 9 9 9 10 10 10 9 9 9 8 7 7 6 5 4 4 4 4 5 6 6 6 7 7 7 6 6 6 6 6 7 7 8 8 9 10 10 11 12 14 15 16 18 20 21 23 25 26 28 29 30 31 31 32 32 33 33 34 34 33 33 32 31
6 7 7 8 8 9 9 9 10 10 10 9 9 8 8 7 6 5 4 3 2 2 3 3 4 4 5 5 5 5 5 5 5 5 6 6 7 7 8 9 9 10 11 12 14 15 17 18 20 21 22 24 26 27 29 30 31 31 32 32 33 33 33 33 33 33 32 31 31
6 6 7 8 8 9 9 9 9 9 9 9 8 7 6 5 4 3 2 2 1 1 1 2 3 3 4 4 4 4 4 4 4 5 6 6 7 8 9 10 11 12 13 14 16 17 19 20 22 23 24 25 26 27 28 29 30 31 31 32 32 32 33 33 32 32 31 31 31
5 6 7 7 8 8 8 9 9 8 8 7 6 5 4 4 3 3 2 2 2 1 1 2 2 2 2 2 3 3 3 4 4 5 6 7 8 9 10 11 12 14 15 17 18 20 21 22 23 24 25 26 27 27 28 29 29 30 30 31 31 31 31 31 31 31 31 31 31
4 5 5 6 6 7 7 7 6 6 6 5 5 4 4 4 3 3 3 2 2 2 2 2 2 2 2 2 2 3 3 4 4 5 7 8 9 10 12 13 15 16 17 19 20 22 23 24 25 26 26 27 27 28 29 29 30 30 30 30 30 29 29 29 30 30 30 30 31
3 3 3 4 4 4 4 4 4 4 4 4 4 4 4 4 4 4 4 3 3 3 3 3 3 2 2 2 2 2 3 4 5 7 8 10 11 13 14 15 17 18 19 20 22 23 24 25 26 27 27 28 28 29 30 30 30 30 30 30 30 29 29 29 29 29 30 30 30
1 1 1 1 1 2 2 3 4 4 5 5 5 5 5 5 5 5 5 5 4 4 4 4 3 2 2 1 2 3 4 6 8 9 11 12 14 15 16 17 19 20 21 22 23 24 25 26 27 28 29 29 30 30 31 31 31 31 31 31 30 30 29 29 29 29 29 29 30
2 2 2 3 3 4 4 5 5 6 6 6 6 6 6 6 6 6 6 6 5 5 4 3 2 1 1 2 3 5 7 8 10 12 13 15 16 17 18 19 20 21 22 24 25 26 27 28 29 30 30 31 31 32 32 32 32 32 32 32 31 31 30 30 29 29 29 29 29
5 5 5 6 6 6 7 7 7 8 8 8 8 8 8 8 8 7 7 6 5 4 3 2 0 1 3 5 6 8 9 11 12 14 15 16 18 19 20 21 22 23 24 25 26 28 29 30 30 31 31 32 32 33 33 33 33 33 33 32 32 31 31 30 29 29 29 28 28
8 8 8 9 9 9 10 10 10 10 10 10 10 10 9 9 8 7 6 5 3 2 1 1 3 4 6 7 9 10 12 13 14 16 17 18 20 21 22 23 24 25 26 27 28 29 30 31 31 32 32 33 33 33 33 33 33 33 33 32 32 31 30 29 29 28 28 27 27
11 11 11 12 12 12 13 12 12 12 12 11 10 9 8 7 6 5 4 2 2 2 3 4 5 7 8 9 11 12 13 15 16 17 19 20 22 23 24 25 26 27 28 29 29 30 31 31 32 32 32 33 33 33 33 33 32 32 32 31 30 30 29 28 27 27 26 26 26
13 13 13 13 14 13 13 13 12 11 10 9 8 7 6 5 4 3 2 2 3 4 5 6 8 9 10 11 12 14 15 17 18 19 21 22 24 25 26 27 28 29 29 30 30 31 31 31 31 31 32 32 32 32 32 31 31 31 30 29 29 28 27 26 26 25 25 25 25
14 14 14 13 13 12 11 11 10 9 8 6 5 5 4 3 3 3 3 4 5 6 7 9 10 11 12 13 15 16 17 19 20 21 23 24 25 26 27 28 29 29 30 30 30 30 31 31 31 30 30 30 30 30 29 29 29 29 28 27 27 26 25 25 24 24 24 24 24
13 13 12 11 10 10 9 8 7 6 5 5 4 3 3 3 4 4 5 6 7 8 9 11 12 13 15 16 17 18 19 21 22 23 24 25 26 27 27 28 29 29 30 30 30 30 30 30 29 29 29 28 28 27 27 27 27 27 27 26 25 25 25 24 24 24 24 24 23
11 10 9 9 8 7 6 6 5 4 4 4 4 4 4 5 6 6 7 8 9 10 12 13 14 15 17 18 19 20 21 22 23 24 25 25 26 27 27 28 28 29 29 29 29 29 28 28 28 27 27 26 26 25 25 25 25 26 25 25 24 24 24 25 25 25 25 25 24
Wind_Direction
237 238 239 240 241 242 243 244 245 247 248 250 251 253 255 257 259 261 263 263 264 264 265 266 267 268 268 268 266 265 263 260 258 257 256 257 258 259 260 260 259 257 256 255 253 253 252 252 252 252 252 253 254 256 257 259 260 263 265 268 271 273 275 277 278 280 282 285 288
237 238 239 241 242 243 244 245 246 248 249 251 253 255 257 259 261 263 264 265 266 267 268 268 269 269 269 269 269 267 266 263 262 260 260 260 260 261 261 261 260 259 258 257 255 254 253 252 252 252 252 253 254 255 256 258 260 262 265 268 271 272 274 275 277 278 280 283 286
238 239 240 241 242 244 245 246 247 248 250 252 254 256 258 260 262 264 266 267 268 269 268 268 269 269 270 270 270 269 268 266 265 264 263 262 262 261 261 261 260 260 259 258 257 255 254 253 253 253 253 254 254 255 256 258 260 262 264 267 269 271 272 273 275 277 278 281 284
238 239 240 241 243 244 246 247 248 250 252 253 255 257 259 261 263 265 266 268 268 268 268 269 269 270 270 270 270 269 269 268 267 265 264 264 263 262 261 261 260 260 259 259 258 256 255 254 253 253 253 254 254 255 256 257 259 261 264 266 268 269 271 272 274 275 277 280 283
238 239 240 242 244 246 248 249 251 252 254 255 257 258 260 262 263 265 266 267 268 269 270 271 271 271 271 271 270 270 269 268 267 265 264 264 263 262 261 261 260 260 260 259 258 257 256 254 253 253 253 253 254 254 255 256 258 260 262 264 266 268 270 271 273 275 277 279 282
238 240 241 243 245 247 249 251 252 254 255 257 258 259 261 262 264 265 266 268 270 272 273 273 273 272 272 271 271 270 269 267 266 265 264 263 262 261 261 261 261 261 260 260 259 258 256 255 253 253 253 253 253 254 254 255 256 258 261 263 265 268 269 271 272 274 276 279 282
239 241 242 244 246 248 250 252 253 255 256 257 258 260 261 263 265 266 268 271 273 274 274 274 274 273 273 272 272 271 269 268 266 265 263 262 261 261 261 261 261 261 261 260 259 258 257 255 253 252 252 253 253 254 254 255 256 258 260 263 266 268 269 271 272 274 276 279 282
241 242 244 245 248 249 251 253 254 255 257 258 259 261 263 265 266 268 270 272 273 274 275 275 275 275 275 274 273 272 270 268 267 265 263 262 261 260 260 260 261 262 262 262 261 259 258 256 254 253 252 253 253 254 255 256 258 259 261 264 266 268 269 271 272 274 276 279 282
241 243 245 247 249 251 253 254 256 257 258 260 261 263 265 266 268 269 270 272 273 275 275 276 276 276 276 275 274 273 271 269 267 266 265 263 262 261 260 260 260 262 263 264 263 262 260 257 255 253 252 253 253 255 256 258 259 260 262 265 267 268 269 271 272 275 277 280 282
242 244 246 248 250 252 254 255 257 258 260 261 263 264 265 267 268 269 271 272 274 274 275 275 276 276 275 274 273 272 271 271 270 268 267 266 264 262 260 260 261 263 265 266 267 265 263 259 256 254 252 252 253 255 257 259 260 262 264 265 267 268 269 271 273 275 278 281 283
244 246 247 249 251 253 255 256 257 259 260 262 263 265 266 267 268 270 271 272 273 273 274 275 275 274 274 273 273 273 273 273 272 271 270 268 266 263 262 261 263 265 268 270 270 268 265 261 257 254 252 252 253 255 257 260 262 263 265 267 268 269 270 272 274 276 279 282 284
246 248 249 251 253 254 255 257 258 259 261 262 264 265 266 267 269 270 270 271 271 271 272 273 273 273 273 273 274 275 275 275 274 273 271 269 267 265 264 264 267 270 272 273 273 270 266 262 258 254 252 252 253 256 259 261 264 265 266 268 269 270 271 273 275 278 281 283 285
248 250 251 253 254 255 256 258 259 260 262 263 264 266 267 268 269 269 269 269 269 270 271 271 271 272 273 275 276 277 277 276 275 273 271 269 267 266 267 269 272 275 276 276 274 271 267 263 258 254 252 252 254 257 261 264 265 267 268 269 270 271 272 275 277 279 282 284 286
250 251 253 254 256 257 258 259 260 261 263 264 265 266 267 267 267 267 267 268 268 269 270 271 272 274 276 277 278 278 277 276 274 272 271 270 269 269 271 274 277 279 279 278 275 272 268 263 258 255 253 254 256 259 263 266 267 268 269 270 271 272 274 277 279 281 283 284 286
251 253 254 256 257 259 260 261 261 262 263 264 265 265 266 266 266 266 267 268 269 270 272 274 276 277 279 279 279 278 277 275 273 272 271 271 271 273 275 278 280 281 280 279 276 272 267 263 259 256 255 256 259 262 265 267 269 269 270 271 272 274 277 279 281 283 284 286 287
253 255 257 258 259 260 261 262 263 263 264 264 265 265 265 265 266 267 268 269 271 273 275 277 279 280 280 280 279 278 277 275 273 272 272 272 274 277 279 282 282 282 280 278 274 270 265 261 258 257 257 259 261 265 267 269 270 271 272 273 275 277 279 281 283 284 285 287 288
255 257 259 261 262 262 263 263 264 264 264 265 265 266 267 268 269 270 271 273 274 276 278 280 281 281 281 281 280 279 277 276 275 274 274 275 278 281 283 284 283 282 279 275 271 266 263 260 259 259 260 262 264 267 268 270 272 273 275 276 278 280 281 283 285 286 287 288 289
259 261 263 264 264 265 265 265 265 266 266 267 267 268 270 271 272 273 275 276 277 279 280 281 281 281 281 281 280 279 278 277 277 277 278 280 282 284 285 285 284 281 277 273 269 265 263 262 262 262 264 265 267 269 271 273 274 276 278 279 281 282 283 285 286 287 288 289 291
263 265 266 267 267 267 267 267 267 267 268 269 270 271 272 273 275 276 277 278 279 280 280 281 281 280 280 280 280 280 279 279 279 280 282 284 286 287 287 286 284 280 277 273 269 266 265 265 265 266 268 269 271 273 274 276 277 279 280 281 283 284 285 286 288 289 290 290 292
265 267 267 268 267 267 267 267 267 268 268 269 271 272 273 274 275 276 277 278 278 278 279 279 279 279 279 280 280 280 280 281 282 284 286 288 289 289 288 286 283 279 275 272 269 268 267 268 269 270 271 273 274 276 277 278 280 281 282 283 284 285 287 288 289 290 291 292 293
264 265 266 265 265 264 264 264 265 266 267 268 269 271 272 273 274 275 275 276 276 276 276 277 278 279 280 281 281 282 282 284 285 287 289 290 290 288 286 283 280 277 273 271 270 270 270 271 272 274 275 277 278 279 280 281 282 283 284 285 286 287 289 290 291 291 292 293 294
261 262 262 261 260 260 260 260 261 262 263 265 267 268 269 271 272 272 273 273 273 274 275 276 278 280 281 283 284 285 285 287 288 289 290 290 288 287 284 280 277 274 273 273 273 274 274 275 276 277 278 279 280 281 282 284 285 286 287 288 289 290 290 291 292 293 294 294 295
256 257 257 256 255 255 255 256 257 259 260 262 264 266 267 269 270 270 271 272 273 274 276 278 280 283 285 287 287 288 289 289 290 290 290 289 287 285 281 278 276 275 275 276 277 278 278 278 279 280 281 282 283 284 285 286 287 288 289 290 291 291 292 293 293 294 294 295 296
252 253 253 253 253 252 253 253 254 256 258 261 263 265 266 267 268 269 270 272 273 275 278 281 284 287 289 290 291 292 292 293 293 292 290 288 285 282 280 278 276 277 278 279 280 280 280 281 282 283 284 285 286 287 288 289 289 290 291 292 292 292 293 293 294 294 295 296 296
251 253 253 254 254 254 253 253 254 255 257 260 262 263 265 266 267 269 270 272 274 277 281 285 289 291 292 293 293 293 293 294 293 292 290 286 283 279 277 277 277 279 280 281 282 283 283 284 285 286 287 288 289 289 290 290 291 291 292 292 292 293 293 293 294 294 295 295 295
258 258 259 259 258 258 257 256 256 256 257 258 260 261 263 265 266 269 270 272 276 279 284 288 292 294 294 294 294 293 292 292 291 290 287 284 280 278 276 277 278 280 281 283 284 285 286 287 288 289 290 290 290 290 290 290 291 291 291 292 292 292 293 293 294 294 294 295 295
268 268 267 265 264 262 261 259 258 257 257 257 259 261 263 264 266 266 268 270 274 279 284 290 294 295 294 293 292 292 291 289 286 284 281 279 277 276 276 277 279 281 283 284 286 287 288 289 290 291 291 291 291 291 291 291 291 291 291 292 292 293 293 294 294 294 295 295 295
274 272 271 269 267 265 263 262 260 259 259 259 260 261 262 262 260 257 256 256 261 271 282 288 289 288 286 286 287 286 285 283 279 276 273 273 274 275 276 278 280 282 284 286 287 287 288 289 289 290 291 291 292 292 292 292 292 292 293 293 293 294 294 295 295 296 296 296 297
276 274 272 270 269 267 265 263 262 261 261 260 260 258 255 249 240 230 219 213 219 244 265 275 271 270 271 274 274 271 271 270 268 268 268 270 272 275 277 279 281 283 285 287 288 288 289 289 289 290 290 291 291 292 292 292 293 293 294 294 294 295 295 296 296 297 298 299 299
278 275 272 271 269 267 265 264 262 261 259 255 251 243 231 216 200 188 180 180 190 203 218 227 233 240 245 246 245 247 251 257 260 263 267 270 273 276 278 281 284 286 287 289 289 290 290 291 291 291 291 291 291 291 291 292 292 293 293 293 294 295 296 296 297 298 299 300 301
280 276 274 271 268 266 263 260 256 252 245 236 222 207 192 179 171 166 164 167 171 176 183 188 190 194 199 204 215 230 244 255 263 269 273 276 279 281 283 285 287 289 290 291 291 291 292 292 292 292 292 292 292 291 291 292 292 292 292 292 293 294 295 296 297 298 299 300 301
289 282 275 270 263 257 250 241 232 221 209 196 184 174 165 158 154 153 152 153 153 155 156 159 161 165 173 187 211 239 259 270 276 280 282 284 285 287 288 289 291 292 292 292 292 292 292 292 292 292 292 292 292 292 292 292 292 292 292 292 293 294 294 295 296 297 298 299 300
327 307 276 240 216 201 189 183 180 175 169 163 158 152 148 145 142 140 139 137 136 137 137 138 141 146 160 207 256 275 282 284 286 287 288 289 290 290 291 292 293 293 293 293 293 293 293 293 293 293 293 292 292 292 292 292 292 292 292 292 293 293 294 295 295 296 297 297 298
71 85 102 115 127 134 139 142 144 144 141 139 136 134 131 129 127 125 123 122 122 121 121 121 122 128 268 286 288 289 289 289 290 291 292 292 292 293 293 294 294 294 293 293 293 293 293 293 293 293 293 292 292 292 292 292 292 292 292 292 293 293 294 294 295 295 296 297 298
90 97 103 109 114 117 120 122 123 123 122 120 118 117 116 115 114 112 111 110 109 108 106 102 61 302 295 294 293 293 293 294 294 294 295 295 294 295 294 294 294 294 294 293 293 293 293 293 293 293 293 293 293 293 293 293 293 293 293 293 294 294 294 295 296 296 297 297 298
95 99 103 106 107 109 110 110 110 110 110 109 108 108 108 107 106 104 102 100 96 88 51 334 311 303 300 299 298 298 298 298 298 297 297 296 296 295 295 294 294 294 294 293 293 293 293 293 293 293 294 294 294 294 294 294 294 294 295 295 295 295 296 297 297 298 299 299 300
98 99 101 102 104 104 104 104 105 104 104 104 104 103 102 101 99 95 87 74 40 352 326 316 309 305 303 303 303 302 301 299 299 297 297 296 295 295 295 294 294 294 294 294 294 294 294 294 294 295 295 295 295 295 295 296 296 296 296 296 296 297 298 300 301 302 302 303 303
100 101 102 102 102 103 103 103 103 102 102 100 100 97 94 88 79 64 38 3 340 326 319 314 310 307 305 304 303 302 300 299 298 297 296 295 295 295 295 295 295 294 294 294 294 295 295 295 295 296 296 296 297 297 297 297 297 297 297 298 298 299 301 303 304 305 306 306 306
104 104 104 103 103 103 102 102 101 99 95 92 88 81 71 54 33 11 350 336 326 319 315 311 308 305 304 302 301 300 298 297 297 296 296 295 295 295 295 295 295 295 295 296 296 296 296 297 297 297 298 298 298 298 298 298 298 298 298 299 300 301 303 306 307 308 308 308 307
107 106 105 104 102 100 98 95 92 87 80 72 62 47 29 11 355 342 332 324 319 314 311 308 306 303 302 300 299 298 297 297 296 296 296 296 296 296 296 296 296 296 297 297 298 298 299 299 299 299 300 300 300 299 298 298 298 299 299 300 301 303 305 306 307 308 307 307 308
107 106 103 100 96 91 87 81 73 64 52 40 26 11 356 346 337 329 323 318 314 311 308 306 304 302 300 299 298 298 297 297 296 296 296 297 297 297 297 298 298 298 299 300 300 301 301 301 302 302 302 302 302 301 299 299 300 300 300 301 302 304 306 307 307 306 305 305 307